Location: Rometta
(44.2000°N, 10.0500°E)
Time: 12:02:15
(UTC+00:00)

Cosmos 158 Rocket - Pass Details

Date: 20 January 2021
Orbit: 698 x 794 km, 74.0° (Epoch: 07 March)

Event Time Altitude Azimuth Distance (km) Brightness Sun altitude
Rises 18:15:32 0° 338° (NNW) 3,262 7.4 -21.6°
Reaches altitude 10° 18:17:55 10° 338° (NNW) 2,342 6.7 -22.0°
Maximum altitude 18:23:16 83° 251° (WSW) 801 4.0 -23.0°
Drops below altitude 10° 18:28:38 10° 164° (SSE) 2,354 6.4 -23.9°
Sets 18:31:02 0° 164° (SSE) 3,280 7.2 -24.4°
